timestamp,surface_pressure_avg,surface_temp_avg,battery_voltage,lat,long
2023-06-18 00:09:00+00:00,360.403,6.07,12.89,47.84626,-54.09684
2023-06-18 00:19:00+00:00,353.1879,6.89,12.73,47.84626,-54.09684
2023-06-18 00:29:00+00:00,349.9913,6.6,12.73,47.84626,-54.09684
2023-06-18 00:39:00+00:00,350.36300000000006,6.56,12.73,47.84626,-54.09684
2023-06-18 00:49:00+00:00,349.99300000000005,5.8,12.73,47.84626,-54.09684
2023-06-18 00:59:00+00:00,351.67800000000005,5.6,12.73,47.84626,-54.09684
2023-06-18 01:09:00+00:00,346.3497,5.7,12.73,47.84626,-54.09684
2023-06-18 01:19:00+00:00,336.7297,5.82,12.73,47.84626,-54.09684
2023-06-18 01:29:00+00:00,330.6013,5.9,12.73,47.84626,-54.09684
2023-06-18 01:39:00+00:00,325.4796,5.8,12.73,47.84626,-54.09684
2023-06-18 01:49:00+00:00,319.1046,5.8,12.73,47.84626,-54.09684
2023-06-18 01:59:00+00:00,308.5847,5.8,12.73,47.84626,-54.09684
2023-06-18 02:09:00+00:00,302.77299999999997,5.83,12.73,47.84626,-54.09684
2023-06-18 02:19:00+00:00,298.213,5.9,12.73,47.84626,-54.09684
2023-06-18 02:29:00+00:00,287.723,6.06,12.73,47.84626,-54.09684
2023-06-18 02:39:00+00:00,278.9581,6.1,12.73,47.84626,-54.09684
2023-06-18 02:49:00+00:00,272.0547,6.65,12.73,47.84626,-54.09684
2023-06-18 02:59:00+00:00,263.8664,6.4,12.73,47.84626,-54.09684
2023-06-18 03:09:00+00:00,253.6198,6.3,12.73,47.84626,-54.09684
2023-06-18 03:19:01+00:00,246.5897,6.2,12.65,47.84626,-54.09684
2023-06-18 03:29:01+00:00,241.2947,6.38,12.65,47.84626,-54.09684
2023-06-18 03:39:01+00:00,229.1914,7.49,12.65,47.84626,-54.09684
2023-06-18 03:49:01+00:00,217.7431,7.69,12.65,47.84626,-54.09684
2023-06-18 03:59:01+00:00,214.1247,7.32,12.65,47.84626,-54.09684
2023-06-18 04:09:01+00:00,214.5948,7.4,12.65,47.84626,-54.09684
2023-06-18 04:19:00+00:00,206.6864,7.27,12.65,47.84626,-54.09684
2023-06-18 04:29:00+00:00,194.7498,7.0,12.65,47.84626,-54.09684
2023-06-18 04:39:00+00:00,193.6981,7.09,12.65,47.84626,-54.09684
2023-06-18 04:49:00+00:00,196.7064,6.6,12.65,47.84626,-54.09684
2023-06-18 04:59:00+00:00,194.2114,6.51,12.65,47.84626,-54.09684
2023-06-18 05:09:00+00:00,188.3364,7.09,12.65,47.84626,-54.09684
2023-06-18 05:19:00+00:00,188.8048,6.73,12.65,47.84626,-54.09684
2023-06-18 05:29:00+00:00,190.5814,6.46,12.65,47.84626,-54.09684
2023-06-18 05:39:00+00:00,192.1315,6.6,12.65,47.84626,-54.09684
2023-06-18 05:49:00+00:00,192.9848,6.88,12.65,47.84626,-54.09684
2023-06-18 05:59:00+00:00,189.2865,6.44,12.65,47.84626,-54.09684
2023-06-18 06:09:00+00:00,188.9515,6.1,12.65,47.84626,-54.09684
2023-06-18 06:19:00+00:00,196.9748,6.57,12.57,47.84626,-54.09684
2023-06-18 06:29:00+00:00,200.1681,6.3,12.57,47.84626,-54.09684
2023-06-18 06:39:00+00:00,196.1698,6.3,12.57,47.84626,-54.09684
2023-06-18 06:49:00+00:00,201.1998,6.1,12.57,47.84626,-54.09684
2023-06-18 06:59:00+00:00,210.8848,5.98,12.57,47.84626,-54.09684
2023-06-18 07:09:00+00:00,213.7964,5.8,12.57,47.84626,-54.09684
2023-06-18 07:19:00+00:00,212.3431,5.6,12.57,47.84626,-54.09684
2023-06-18 07:29:00+00:00,218.5148,5.4,12.57,47.84626,-54.09684
2023-06-18 07:39:00+00:00,223.5331,5.31,12.57,47.84626,-54.09684
2023-06-18 07:49:00+00:00,223.5947,5.35,12.57,47.84626,-54.09684
2023-06-18 07:59:00+00:00,224.8914,5.38,12.57,47.84626,-54.09684
2023-06-18 08:09:00+00:00,229.3781,5.38,12.57,47.84626,-54.09684
2023-06-18 08:19:00+00:00,233.0065,5.48,12.57,47.84626,-54.09684
2023-06-18 08:29:00+00:00,235.0348,5.6,12.57,47.84626,-54.09684
2023-06-18 08:39:00+00:00,239.0698,5.5,12.57,47.84626,-54.09684
2023-06-18 08:49:00+00:00,246.3347,5.49,12.57,47.84626,-54.09684
2023-06-18 08:59:00+00:00,252.9964,5.4,12.57,47.84626,-54.09684
2023-06-18 09:09:00+00:00,257.5797,5.4,12.57,47.84626,-54.09684
2023-06-18 09:19:00+00:00,262.0614,5.3,12.57,47.84626,-54.09684
2023-06-18 09:29:00+00:00,266.2781,5.3,12.57,47.84626,-54.09684
2023-06-18 09:39:00+00:00,272.8581,5.2,12.57,47.84626,-54.09684
2023-06-18 09:49:00+00:00,282.6031,5.0,12.57,47.84626,-54.09684
2023-06-18 09:59:00+00:00,289.0447,4.97,12.57,47.84626,-54.09684
2023-06-18 10:09:00+00:00,287.673,4.94,12.57,47.84626,-54.09684
2023-06-18 10:19:00+00:00,291.1947,4.9,12.65,47.84626,-54.09684
2023-06-18 10:29:00+00:00,301.358,4.9,12.65,47.84626,-54.09684
2023-06-18 10:39:00+00:00,307.3196,4.9,12.65,47.84626,-54.09684
2023-06-18 10:49:00+00:00,308.6014,4.88,12.65,47.84626,-54.09684
2023-06-18 10:59:00+00:00,314.3647,4.81,12.65,47.84626,-54.09684
2023-06-18 11:09:00+00:00,320.2278,4.8,12.65,47.84626,-54.09684
2023-06-18 11:19:00+00:00,318.4613,4.82,12.65,47.84626,-54.09684
2023-06-18 11:29:00+00:00,313.6265,4.9,12.65,47.84626,-54.09684
2023-06-18 11:39:00+00:00,317.2664,4.96,12.65,47.84626,-54.09684
2023-06-18 11:49:00+00:00,323.4781,4.99,12.65,47.84626,-54.09684
2023-06-18 11:59:00+00:00,323.368,4.98,12.65,47.84626,-54.09684
2023-06-18 12:09:00+00:00,320.0397,4.97,12.65,47.84626,-54.09684
2023-06-18 12:19:00+00:00,316.4196,4.99,12.97,47.84626,-54.09684
2023-06-18 12:29:00+00:00,322.1013,4.93,12.97,47.84626,-54.09684
2023-06-18 12:39:00+00:00,322.2546,4.9,12.97,47.84626,-54.09684
2023-06-18 12:49:00+00:00,315.1913,4.9,12.97,47.84626,-54.09684
2023-06-18 12:59:00+00:00,310.478,4.93,12.97,47.84626,-54.09684
2023-06-18 13:09:00+00:00,316.2213,4.95,12.97,47.84626,-54.09684
2023-06-18 13:19:00+00:00,320.448,5.19,13.05,47.84626,-54.09684
2023-06-18 13:29:00+00:00,310.4396,5.97,13.05,47.84626,-54.09684
2023-06-18 13:39:00+00:00,304.9564,6.0,13.05,47.84626,-54.09684
2023-06-18 13:49:00+00:00,308.7396,5.8,13.05,47.84626,-54.09684
2023-06-18 13:59:00+00:00,303.1196,6.14,13.05,47.84626,-54.09684
2023-06-18 14:09:00+00:00,286.3713,6.15,13.05,47.84626,-54.09684
2023-06-18 14:19:00+00:00,278.2231,5.5,13.37,47.84626,-54.09684
2023-06-18 14:29:00+00:00,282.0065,5.37,13.37,47.84626,-54.09684
2023-06-18 14:39:00+00:00,274.8231,5.39,13.37,47.84626,-54.09684
2023-06-18 14:49:00+00:00,259.8197,5.54,13.37,47.84626,-54.09684
2023-06-18 14:59:00+00:00,256.0331,5.66,13.37,47.84626,-54.09684
2023-06-18 15:09:00+00:00,254.508,5.7,13.37,47.84626,-54.09684
2023-06-18 15:19:00+00:00,245.3881,5.8,13.37,47.84626,-54.09684
2023-06-18 15:29:00+00:00,231.8197,5.9,13.37,47.84626,-54.09684
2023-06-18 15:39:00+00:00,226.7131,5.96,13.37,47.84626,-54.09684
2023-06-18 15:49:00+00:00,226.5248,6.0,13.37,47.84626,-54.09684
2023-06-18 15:59:00+00:00,218.8514,6.0,13.37,47.84626,-54.09684
2023-06-18 16:09:00+00:00,208.6198,6.04,13.37,47.84626,-54.09684
2023-06-18 16:19:00+00:00,204.1465,6.07,13.37,47.84626,-54.09684
2023-06-18 16:29:00+00:00,201.6931,6.04,13.37,47.84626,-54.09684
2023-06-18 16:39:00+00:00,196.3081,6.0,13.37,47.84626,-54.09684
2023-06-18 16:49:00+00:00,190.4431,6.0,13.37,47.84626,-54.09684
2023-06-18 16:59:00+00:00,189.1064,6.04,13.37,47.84626,-54.09684
2023-06-18 17:09:00+00:00,189.9265,6.07,13.37,47.84626,-54.09684
2023-06-18 17:19:00+00:00,188.1982,6.03,13.53,47.84626,-54.09684
2023-06-18 17:29:00+00:00,185.8431,6.0,13.53,47.84626,-54.09684
2023-06-18 17:39:00+00:00,186.9581,6.0,13.53,47.84626,-54.09684
2023-06-18 17:49:00+00:00,188.3982,6.0,13.53,47.84626,-54.09684
2023-06-18 17:59:00+00:00,189.0665,5.97,13.53,47.84626,-54.09684
2023-06-18 18:09:00+00:00,190.6781,5.9,13.53,47.84626,-54.09684
2023-06-18 18:19:00+00:00,198.1781,5.9,13.76,47.84626,-54.09684
2023-06-18 18:29:00+00:00,206.9698,5.89,13.76,47.84626,-54.09684
2023-06-18 18:39:00+00:00,207.0031,5.9,13.76,47.84626,-54.09684
2023-06-18 18:49:00+00:00,210.7198,5.87,13.76,47.84626,-54.09684
2023-06-18 18:59:00+00:00,220.5214,5.8,13.76,47.84626,-54.09684
2023-06-18 19:09:00+00:00,224.8865,5.8,13.76,47.84626,-54.09684
2023-06-18 19:19:00+00:00,225.8282,5.8,13.84,47.84626,-54.09684
2023-06-18 19:29:00+00:00,230.8798,5.74,13.84,47.84626,-54.09684
2023-06-18 19:39:00+00:00,235.8098,5.74,13.84,47.84626,-54.09684
2023-06-18 19:49:00+00:00,236.7347,5.77,13.84,47.84626,-54.09684
2023-06-18 19:59:00+00:00,235.9048,5.77,13.84,47.84626,-54.09684
2023-06-18 20:09:00+00:00,241.9031,5.74,13.84,47.84626,-54.09684
2023-06-18 20:19:01+00:00,250.1014,5.72,13.68,47.84626,-54.09684
2023-06-18 20:29:01+00:00,255.9047,5.75,13.68,47.84626,-54.09684
2023-06-18 20:39:01+00:00,255.8464,5.75,13.68,47.84626,-54.09684
2023-06-18 20:49:01+00:00,258.5565,5.74,13.68,47.84626,-54.09684
2023-06-18 20:59:01+00:00,267.9431,5.78,13.68,47.84626,-54.09684
2023-06-18 21:09:01+00:00,279.0131,5.8,13.68,47.84626,-54.09684
2023-06-18 21:19:00+00:00,278.8397,5.8,13.53,47.84626,-54.09684
2023-06-18 21:29:00+00:00,283.2964,5.83,13.53,47.84626,-54.09684
2023-06-18 21:39:00+00:00,297.7164,5.85,13.53,47.84626,-54.09684
2023-06-18 21:49:00+00:00,308.9498,5.87,13.53,47.84626,-54.09684
2023-06-18 21:59:00+00:00,302.2147,5.9,13.53,47.84626,-54.09684
2023-06-18 22:09:00+00:00,304.46299999999997,6.0,13.53,47.84626,-54.09684
2023-06-18 22:19:00+00:00,322.0114,6.06,13.37,47.84626,-54.09684
2023-06-18 22:29:00+00:00,331.1196,6.17,13.37,47.84626,-54.09684
2023-06-18 22:39:00+00:00,325.6796,6.35,13.37,47.84626,-54.09684
2023-06-18 22:49:00+00:00,334.798,6.47,13.37,47.84626,-54.09684
2023-06-18 22:59:00+00:00,350.9647,6.3,13.37,47.84626,-54.09684
2023-06-18 23:09:00+00:00,352.8496,6.39,13.37,47.84626,-54.09684
2023-06-18 23:19:00+00:00,349.2396,6.5,13.13,47.84626,-54.09684
2023-06-18 23:29:00+00:00,358.5013,5.88,13.13,47.84626,-54.09684
2023-06-18 23:39:00+00:00,365.723,5.6,13.13,47.84626,-54.09684
2023-06-18 23:49:00+00:00,359.80800000000005,5.86,13.13,47.84626,-54.09684
2023-06-18 23:59:00+00:00,357.8596,5.9,13.13,47.84626,-54.09684
